This is the latest recevied weather packets stored in our database for station/object KJ7BRE-1. If no packets are shown the sender has not sent any weather packets the latest 10 day(s).
| Time | Temp. | Humidity | Pressure | Rain* | Wind** | Luminosity | Snow |
|---|---|---|---|---|---|---|---|
| 1787504989 | 20° C | 66% | 1019.3 hPa | 0 mm | - | - | - |
| 1787504688 | 19.44° C | 68% | 1019.3 hPa | 0 mm | - | - | - |
| 1787504387 | 19.44° C | 68% | 1019.3 hPa | 0 mm | - | - | - |
| 1787504086 | 19.44° C | 69% | 1019.3 hPa | 0 mm | - | - | - |
| 1787503785 | 19.44° C | 68% | 1019.3 hPa | 0 mm | - | - | - |
| 1787503483 | 20° C | 66% | 1019.3 hPa | 0 mm | - | - | - |
| 1787503182 | 20° C | 66% | 1019.6 hPa | 0 mm | - | - | - |
| 1787502881 | 20.56° C | 66% | 1019.3 hPa | 0 mm | - | - | - |
| 1787502580 | 20° C | 66% | 1019 hPa | 0 mm | - | - | - |
| 1787502278 | 19.44° C | 70% | 1019.3 hPa | 0 mm | - | - | - |
| 1787501977 | 18.89° C | 70% | 1019.3 hPa | 0 mm | - | - | - |
| 1787501676 | 18.89° C | 71% | 1019.3 hPa | 0 mm | - | - | - |
| 1787501375 | 18.89° C | 71% | 1019.3 hPa | 0 mm | - | - | - |
| 1787501073 | 18.89° C | 70% | 1019 hPa | 0 mm | - | - | - |
| 1787500772 | 18.89° C | 72% | 1019.3 hPa | 0 mm | - | - | - |
| 1787500471 | 18.33° C | 72% | 1019.3 hPa | 0 mm | - | - | - |
| 1787500170 | 18.33° C | 72% | 1019.3 hPa | 0 mm | - | - | - |
| 1787499869 | 18.89° C | 71% | 1019.3 hPa | 0 mm | - | - | - |
| 1787499567 | 18.33° C | 72% | 1019.3 hPa | 0 mm | - | - | - |
| 1787499266 | 18.33° C | 73% | 1019.3 hPa | 0 mm | - | - | - |
| 1787498965 | 18.33° C | 73% | 1019.3 hPa | 0 mm | - | - | - |
| 1787498664 | 18.33° C | 74% | 1019.3 hPa | 0 mm | - | - | - |
| 1787498362 | 17.78° C | 74% | 1019 hPa | 0 mm | - | - | - |
| 1787498061 | 17.78° C | 74% | 1019 hPa | 0 mm | - | - | - |
| 1787497760 | 17.78° C | 74% | 1019 hPa | 0 mm | - | - | - |
* Rain latest hour (hover to see other rain measurements)
** Current wind speed in m/s (hover to see current wind gust speed)